Flag for Norway Weather past 2 weeks in Bodø, Norway

Now
45 °F

Scattered clouds.


Feels Like: 41 °F
Forecast: 38 / 47 °F
Wind: 7 mph from North

Location: Bodo Vi

Current Time: Sep 22, 2014 at 4:49:15 PM

Latest Report: Sep 22, 2014 at 3:50 PM


Visibility: N/A

Pressure: 30.12 "Hg

Humidity: 61%

Dew point: 32 °F

Location of BodøLocation

Historic Weather in Bodø — Graph

°F

Bodø temperature yesterday

Maximum temperature yesterday: 54 °F (at 12:50 AM)
Minimum temperature yesterday: 43 °F (at 10:20 PM)
Average temperature yesterday: 46 °F

Past Weeks' High & Low Weather Summary

 TemperatureHumidityPressure
High64 °F (Sep 8, 4:20 PM)100% (Sep 8, 3:50 AM)30.54 "Hg (Sep 8, 3:50 AM)
Low37 °F (Sep 22, 8:50 AM)41% (Sep 16, 7:20 PM)29.59 "Hg (Sep 20, 11:50 PM)
Average52 °F85%30.11 "Hg
* Reported Sep 7 3:20 PM — Sep 22 3:50 PM, Bodø, Weather by CustomWeather, © 2014

Note: Actual official high and low records may vary slightly from our data, if they occured in-between our weather recording intervals... More about our weather records

Advertising

Bodø weather history for previous 24 hours

 ConditionsComfort  
Time TempWeatherWind HumidityBarometerVisibility
3:50 PM
Sep 22
45 °FScattered clouds.7 mph61%30.12 "HgN/A
3:20 PM45 °FScattered clouds.8 mph57%30.12 "HgN/A
2:50 PM45 °FPassing clouds.6 mph61%30.12 "HgN/A
2:20 PM45 °FPassing clouds.8 mph61%30.12 "HgN/A
1:50 PM45 °FPassing clouds.7 mph66%30.12 "HgN/A
1:20 PM45 °FPassing clouds.7 mph61%30.12 "HgN/A
12:50 PM43 °FPassing clouds.8 mph66%30.12 "HgN/A
12:20 PM43 °FPassing clouds.3 mph71%30.12 "HgN/A
11:50 AM43 °FScattered clouds.3 mph71%30.12 "HgN/A
11:20 AM41 °FScattered clouds.7 mph81%30.09 "HgN/A
10:50 AM41 °FScattered clouds.6 mph81%30.09 "HgN/A
10:20 AM39 °FScattered clouds.3 mph81%30.09 "HgN/A
9:50 AM39 °FBroken clouds.6 mph81%30.09 "HgN/A
9:20 AM37 °FScattered showers. Broken clouds.6 mph93%30.09 "HgN/A
8:50 AM37 °FSprinkles. Broken clouds.15 mph87%30.09 "HgN/A
8:20 AM41 °FScattered showers. Broken clouds.10 mph76%30.07 "HgN/A
7:50 AM41 °FBroken clouds.9 mph76%30.07 "HgN/A
7:20 AM41 °FPartly cloudy.7 mph70%30.07 "HgN/A
6:50 AM41 °FPartly cloudy.6 mph76%30.07 "HgN/A
6:20 AM39 °FPartly cloudy.2 mph81%30.07 "HgN/A
5:50 AM41 °FScattered showers. Partly cloudy.12 mph81%30.07 "HgN/A
5:20 AM39 °FSprinkles. Partly cloudy.14 mph81%30.07 "HgN/A
4:50 AM43 °FSprinkles. Partly cloudy.13 mph71%30.07 "HgN/A
3:50 AM43 °FPassing clouds.8 mph66%30.07 "HgN/A
2:50 AM41 °FPassing clouds.9 mph76%30.07 "HgN/A
1:50 AM43 °FPassing clouds.10 mph66%30.07 "HgN/A
12:50 AM45 °FPartly cloudy.13 mph66%30.07 "HgN/A
11:50 PM
Sep 21
43 °FPassing clouds.12 mph71%30.04 "HgN/A
11:20 PM43 °FPassing clouds.12 mph76%30.04 "HgN/A
10:50 PM43 °FPassing clouds.10 mph71%30.04 "HgN/A
10:20 PM43 °FPassing clouds.10 mph71%30.04 "HgN/A
9:50 PM45 °FPassing clouds.10 mph66%30.04 "HgN/A
9:20 PM45 °FPassing clouds.12 mph66%30.04 "HgN/A
8:50 PM45 °FPassing clouds.10 mph66%30.04 "HgN/A
8:20 PM45 °FPassing clouds.12 mph71%30.01 "HgN/A
7:50 PM45 °FScattered clouds.13 mph71%30.01 "HgN/A
7:20 PM45 °FPartly sunny.13 mph66%30.01 "HgN/A
6:50 PM46 °FPartly sunny.14 mph66%30.01 "HgN/A
6:20 PM46 °FPartly sunny.14 mph62%29.98 "HgN/A
5:50 PM46 °FScattered clouds.14 mph66%29.98 "HgN/A
5:20 PM46 °FScattered clouds.14 mph62%29.95 "HgN/A
4:50 PM46 °FScattered clouds.16 mph62%29.95 "HgN/A
4:20 PM48 °FScattered clouds.17 mph58%29.92 "HgN/A
Weather by CustomWeather, © 2014

See weather overviewHow to use our weather pages